QFA2 EGLL-WSSS

Flight info

Callsign QFA2
Flight time N/A
Altitude 33000
Route DET L6 DVR L9 KONAN DCT KOK DCT REMBA/N0494F350 DCT MATUG DCT GUBAX DCT BOREP DCT ENITA DCT TOVKA DCT ERGOM DCT BUDOP DCT DINRO DCT UDROS UM859 KARDE UL851 TBN UM11 REBLO M11 LUSAL N701 LARGI B701 KRS/N0494F370 A240 INRAK B449 DOLOS B475 NINOP A909 LEMOD N644 DI A466 DPN L759 LAMBU/N0494F390 L759 PUT B579 VPL Y503 RINBA Y507 MAKNA Y511 TOPOR A464 ARAMA DCT TEBUN TEBUN1A
Aircraft A388/J-SADE2E3FGHIJ4J5M1P2RWYZ/LB1D1

Departure

Time N/A
Airport London Heathrow Airport (EGLL)

Arrival

Time 2026-05-07 04:48
Airport Singapore Changi Airport (WSSS)
Time Latitude Longitude Altitude Speed Heading
2026-05-07 04:31 1.05312 104.06752 20531 ft 406 kts 96°
2026-05-07 04:31 1.04628 104.09495 19925 ft 404 kts 111°
2026-05-07 04:31 1.03236 104.11929 19352 ft 403 kts 127°
2026-05-07 04:32 1.01251 104.13870 18779 ft 403 kts 143°
2026-05-07 04:32 0.98778 104.15196 18219 ft 403 kts 159°
2026-05-07 04:32 0.96074 104.15766 17607 ft 402 kts 175°
2026-05-07 04:32 0.93286 104.15538 17022 ft 401 kts 192°
2026-05-07 04:33 0.90720 104.14529 16427 ft 400 kts 209°
2026-05-07 04:33 0.88549 104.12799 15840 ft 398 kts 227°
2026-05-07 04:33 0.87020 104.10537 15270 ft 396 kts 245°
2026-05-07 04:33 0.86248 104.07903 14700 ft 393 kts 263°
2026-05-07 04:34 0.86333 104.05191 14132 ft 389 kts 282°
2026-05-07 04:34 0.87246 104.02697 13567 ft 384 kts 299°
2026-05-07 04:34 0.88586 104.00398 12912 ft 380 kts 307°
2026-05-07 04:34 0.90434 103.98545 12320 ft 373 kts 326°
2026-05-07 04:35 0.92740 103.97391 11721 ft 368 kts 345°
2026-05-07 04:35 0.95257 103.97069 11136 ft 362 kts
2026-05-07 04:35 0.97701 103.97570 10601 ft 356 kts 23°
2026-05-07 04:35 0.99773 103.98757 10436 ft 339 kts 40°
2026-05-07 04:36 1.01430 104.00390 10274 ft 330 kts 48°
2026-05-07 04:36 1.03014 104.02066 10113 ft 330 kts 47°
2026-05-07 04:36 1.04586 104.03705 9952 ft 329 kts 47°
2026-05-07 04:36 1.06184 104.05369 9794 ft 329 kts 47°
2026-05-07 04:37 1.07743 104.06998 9569 ft 328 kts 47°
2026-05-07 04:37 1.09319 104.08649 9325 ft 327 kts 47°
2026-05-07 04:37 1.10886 104.10294 9069 ft 326 kts 47°
2026-05-07 04:37 1.12463 104.11924 8825 ft 326 kts 44°
2026-05-07 04:38 1.14247 104.13318 8581 ft 326 kts 33°
2026-05-07 04:38 1.16264 104.14371 8339 ft 326 kts 23°
2026-05-07 04:38 1.18358 104.15227 8097 ft 325 kts 24°
2026-05-07 04:38 1.20443 104.16109 7851 ft 324 kts 24°
2026-05-07 04:39 1.22489 104.16985 7621 ft 323 kts 24°
2026-05-07 04:39 1.24561 104.17874 7377 ft 323 kts 24°
2026-05-07 04:39 1.26621 104.18755 7146 ft 321 kts 24°
2026-05-07 04:39 1.28675 104.19632 6908 ft 321 kts 24°
2026-05-07 04:40 1.30725 104.20505 6656 ft 320 kts 22°
2026-05-07 04:40 1.32852 104.21034 6350 ft 312 kts
2026-05-07 04:40 1.34989 104.20906 6054 ft 306 kts 347°
2026-05-07 04:40 1.37074 104.20430 5759 ft 310 kts 347°
2026-05-07 04:41 1.39192 104.19970 5449 ft 308 kts 348°
2026-05-07 04:41 1.41245 104.19535 5188 ft 300 kts 348°
2026-05-07 04:41 1.43256 104.19104 4952 ft 292 kts 348°
2026-05-07 04:41 1.45220 104.18696 4708 ft 284 kts 348°
2026-05-07 04:42 1.47139 104.18300 4462 ft 278 kts 347°
2026-05-07 04:42 1.48875 104.17527 4208 ft 271 kts 321°
2026-05-07 04:42 1.50151 104.16176 3987 ft 265 kts 306°
2026-05-07 04:42 1.51142 104.14678 3758 ft 257 kts 300°
2026-05-07 04:43 1.52043 104.13168 3502 ft 248 kts 300°
2026-05-07 04:43 1.52923 104.11699 3299 ft 243 kts 300°
2026-05-07 04:43 1.53615 104.10200 3120 ft 234 kts 278°
2026-05-07 04:43 1.53492 104.08645 2949 ft 224 kts 246°
2026-05-07 04:44 1.52798 104.07283 2792 ft 218 kts 240°
2026-05-07 04:44 1.52067 104.05969 2620 ft 213 kts 236°
2026-05-07 04:44 1.51105 104.04906 2508 ft 195 kts 216°
2026-05-07 04:44 1.49998 104.04213 2505 ft 186 kts 206°
2026-05-07 04:45 1.48819 104.03651 2325 ft 189 kts 203°
2026-05-07 04:45 1.47638 104.03146 2084 ft 184 kts 202°
2026-05-07 04:45 1.46501 104.02660 1848 ft 173 kts 202°
2026-05-07 04:45 1.45403 104.02196 1629 ft 169 kts 202°
2026-05-07 04:46 1.44321 104.01736 1409 ft 169 kts 202°
2026-05-07 04:46 1.43266 104.01288 1199 ft 158 kts 202°
2026-05-07 04:46 1.42300 104.00878 997 ft 145 kts 202°
2026-05-07 04:46 1.41379 104.00487 822 ft 142 kts 202°
2026-05-07 04:47 1.40466 104.00112 643 ft 143 kts 202°
2026-05-07 04:47 1.39551 103.99726 460 ft 142 kts 205°
2026-05-07 04:47 1.38644 103.99332 271 ft 141 kts 203°
2026-05-07 04:47 1.37746 103.98950 90 ft 140 kts 204°
2026-05-07 04:48 1.36908 103.98596 36 ft 114 kts 203°
2026-05-07 04:48 1.36303 103.98337 36 ft 79 kts 202°
2026-05-07 04:48 1.35918 103.98176 35 ft 37 kts 204°
2026-05-07 04:48 1.35706 103.98112 35 ft 29 kts 185°
2026-05-07 04:49 1.35564 103.98119 35 ft 14 kts 162°
2026-05-07 04:49 1.35524 103.98180 35 ft 10 kts 78°
2026-05-07 04:49 1.35572 103.98227 35 ft 10 kts 21°
2026-05-07 04:49 1.35652 103.98259 35 ft 15 kts 21°
2026-05-07 04:50 1.35760 103.98305 35 ft 19 kts 24°
2026-05-07 04:50 1.35888 103.98359 35 ft 21 kts 22°
2026-05-07 04:50 1.35982 103.98398 35 ft 23 kts 22°
2026-05-07 04:50 1.36134 103.98461 35 ft 24 kts 23°
2026-05-07 04:51 1.36295 103.98530 35 ft 26 kts 23°
2026-05-07 04:51 1.36463 103.98601 35 ft 27 kts 22°
2026-05-07 04:51 1.36626 103.98669 35 ft 22 kts 22°
2026-05-07 04:51 1.36735 103.98714 35 ft 12 kts 24°
2026-05-07 04:52 1.36803 103.98744 35 ft 10 kts 24°
2026-05-07 04:52 1.36835 103.98762 35 ft 3 kts 51°
2026-05-07 04:52 1.36842 103.98792 35 ft 6 kts 99°
2026-05-07 04:52 1.36820 103.98846 35 ft 10 kts 115°
2026-05-07 04:53 1.36786 103.98923 35 ft 14 kts 111°
2026-05-07 04:53 1.36746 103.99021 35 ft 16 kts 113°
2026-05-07 04:53 1.36700 103.99130 35 ft 18 kts 114°
2026-05-07 04:53 1.36649 103.99250 35 ft 19 kts 114°
2026-05-07 04:54 1.36602 103.99354 35 ft 12 kts 114°
2026-05-07 04:54 1.36570 103.99427 35 ft 13 kts 114°
2026-05-07 04:54 1.36529 103.99517 35 ft 15 kts 114°
2026-05-07 04:54 1.36498 103.99590 35 ft 8 kts 116°
2026-05-07 04:55 1.36468 103.99616 35 ft 6 kts 170°
2026-05-07 04:55 1.36423 103.99602 35 ft 9 kts 210°
2026-05-07 04:55 1.36365 103.99556 35 ft 12 kts 234°
2026-05-07 04:55 1.36310 103.99479 35 ft 13 kts 234°
2026-05-07 04:56 1.36276 103.99427 35 ft 9 kts 254°
2026-05-07 04:56 1.36286 103.99384 35 ft 5 kts 317°
2026-05-07 04:56 1.36303 103.99368 35 ft 2 kts 308°
2026-05-07 04:56 1.36308 103.99361 35 ft 0 kts 308°